This is the latest recevied weather packets stored in our database for station/object ZL2ASC-13. If no packets are shown the sender has not sent any weather packets the latest 10 day(s).
| Time | Temp. | Humidity | Pressure | Rain* | Wind** | Luminosity | Snow |
|---|---|---|---|---|---|---|---|
| 1787440402 | 13.89° C | 67% | 1010.9 hPa | 0 mm | - | - | - |
| 1787440342 | 14.44° C | 69% | 1010.9 hPa | 0 mm | - | - | - |
| 1787440282 | 13.89° C | 69% | 1011 hPa | 0 mm | - | - | - |
| 1787440223 | 14.44° C | 68% | 1011 hPa | 0 mm | - | - | - |
| 1787440162 | 13.89° C | 66% | 1010.9 hPa | 0 mm | - | - | - |
| 1787440102 | 13.89° C | 67% | 1010.7 hPa | 1.52 mm | - | - | - |
| 1787440042 | 13.89° C | 66% | 1011.2 hPa | 0 mm | - | - | - |
| 1787439982 | 13.89° C | 66% | 1011.1 hPa | 0 mm | - | - | - |
| 1787439922 | 13.89° C | 67% | 1010.9 hPa | 0 mm | - | - | - |
| 1787439862 | 13.89° C | 66% | 1010.9 hPa | 0 mm | - | - | - |
| 1787439802 | 13.89° C | 67% | 1011 hPa | 0 mm | - | - | - |
| 1787439742 | 13.89° C | 70% | 1011 hPa | 0 mm | - | - | - |
| 1787439682 | 13.89° C | 70% | 1011 hPa | 0 mm | - | - | - |
| 1787439622 | 13.89° C | 69% | 1011 hPa | 0 mm | - | - | - |
| 1787439562 | 13.89° C | 69% | 1011.1 hPa | 0 mm | - | - | - |
| 1787439502 | 13.89° C | 68% | 1011 hPa | 0 mm | - | - | - |
| 1787439442 | 13.89° C | 68% | 1011 hPa | 0 mm | - | - | - |
| 1787439382 | 13.89° C | 67% | 1010.9 hPa | 0 mm | - | - | - |
| 1787439321 | 14.44° C | 66% | 1010.8 hPa | 0 mm | - | - | - |
| 1787439261 | 14.44° C | 67% | 1010.8 hPa | 0 mm | - | - | - |
| 1787439201 | 14.44° C | 67% | 1010.8 hPa | 0 mm | - | - | - |
| 1787439141 | 14.44° C | 67% | 1010.7 hPa | 0 mm | - | - | - |
| 1787439081 | 14.44° C | 69% | 1010.8 hPa | 0 mm | - | - | - |
| 1787439021 | 14.44° C | 71% | 1010.9 hPa | 0 mm | - | - | - |
| 1787438961 | 13.89° C | 71% | 1010.9 hPa | 0 mm | - | - | - |
* Rain latest hour (hover to see other rain measurements)
** Current wind speed in m/s (hover to see current wind gust speed)